EHRDLEAL

Guest
Details From EHRD - Rotterdam
To LEAL - Alicante
Flight Number -
Tags Generated
Created
Modified
Stats Distance 847 nm / 1,569 km
Max Altitude 0 ft / 0 m
Waypoints 5
Social Downloads 3
Likes 0
Share VATSIM

Download

Looking for another format? Having issues loading an existing format? Contact us
Advertisement - Login to hide

Notes

Generated

Route

EHRD GIPEX ASPET R2305 LEAL

ID Type Via Altitude Latitude Longitude Leg Dist Tot Dist Heading (true) Name
O EHRD APT - 0 ft / 0 m 51.95209˚ 4.42824˚ - 0 nm - -
GIPEX FIX - 0 ft / 0 m 47.75750˚ 2.62333˚ 261 nm 261 nm 196° / 195° -
ASPET FIX - 0 ft / 0 m 43.00000˚ 0.97972˚ 293 nm 555 nm 194° / 193° -
R2305 FIX - 0 ft / 0 m 38.28452˚ -0.57500˚ 291 nm 847 nm 195° / 194° -
O LEAL APT - 0 ft / 0 m 38.28452˚ -0.57500˚ 0 nm 847 nm 270° / 270° -

Altitude Profile

Advertisement - Login to hide

Weather


0- 5 10 15 20 25 30 35+ Temperature / ° C

Clouds and Precipitation
Forecast for 2017-08-21 18:00 UTC. Updated 24 minutes ago

Ground ~20,000 ft ~40,000 ft Winds

EHRD

Details ICAO EHRD (RTM)
Name Rotterdam The Hague
Region Netherlands
Timezone Europe/Amsterdam (UTC+2.0)
Stats Elevation -15 ft / -5 m (AMSL)
Location 51.957468° 4.441662°
Runways 1
Magnetic Variation 1.003° E

METAR

EHRD 211325Z AUTO 17003KT 100V250 9999 SCT040 BKN044 BKN049 21/12 Q1022 NOSIG

Decode

TAF

TAF EHRD 211102Z 2112/2218 24005KT 9999 SCT025 PROB40 TEMPO 2201/2206 4000 MIFG BR PROB30 TEMPO 2202/2206 1200 BCFG

Decode

Departure Runways

ID Width Length Bearing (true) Bearing (mag) Surface Threshold Offset Overrun Length
06 148 ft / 45 m 7,201 ft / 2,195 m 56.93° 55.93° Asphalt 656 ft / 200 m 0 ft / 0 m
24 148 ft / 45 m 7,201 ft / 2,195 m 236.95° 235.95° Asphalt 656 ft / 200 m 0 ft / 0 m

LEAL

Details ICAO LEAL (ALC)
Name Alicante
Region Spain
Timezone Europe/Madrid (UTC+2.0)
Stats Elevation 141 ft / 43 m (AMSL)
Location 38.282169° -0.558157°
Runways 1
Magnetic Variation 0.149° E

METAR

LEAL 211330Z 10009KT 060V140 9999 FEW025 28/20 Q1019 NOSIG

Decode

TAF

TAF TAF LEAL 211100Z 2112/2212 09010KT 9999 FEW025 TX31/2112Z TN22/2205Z BECMG 2119/2121 VRB03KT BECMG 2210/2212 12008KT

Decode

Destination Runways

ID Width Length Bearing (true) Bearing (mag) Surface Threshold Offset Overrun Length
10 148 ft / 45 m 9,799 ft / 2,987 m 100.07° 99.92° Asphalt 0 ft / 0 m 164 ft / 50 m
28 148 ft / 45 m 9,799 ft / 2,987 m 280.09° 279.94° Asphalt 0 ft / 0 m 197 ft / 60 m

Approach Navaids

Runway Type Ident Frequency Range Bearing (true) Bearing (mag) Slope Elevation
10 Localiser IAT 110.30 MHz 18 nm / 33 km 100.09° 99.94° - 29 ft / 9 m (AMSL)
10 Glidescope IAT 110.30 MHz 10 nm / 19 km 100.09° 99.95° 3.00° 129 ft / 39 m (AMSL)
10 DME IAT 110.30 MHz 18 nm / 33 km - - - 129 ft / 39 m (AMSL)

Popular Alternatives